Tracking 29528 objects as of 12-Sep-2024
HD Live streaming from Space Station
objects crossing your sky now

STARLINK-5173

Track STARLINK-5173 now!
10-day predictions
STARLINK-5173 is classified as:


NORAD ID: 54059
Int'l Code: 2022-136J
Perigee: 545.9 km
Apogee: 547.8 km
Inclination: 53.2 °
Period: 95.4 minutes
Semi major axis: 6917 km
RCS: Unknown
Launch date: October 20, 2022
Source: United States (US)
Launch site: AIR FORCE EASTERN TEST RANGE (AFETR)
Your satellite tracking list
Your tracking list is empty




NASA's NSSDC Master Catalog

Two Line Element Set (TLE):
1 54059U 22136J   24255.72868516 -.00000533  00000-0 -15373-4 0  9994
2 54059  53.2168 266.1056 0001342  82.8959 277.2186 15.08842680104726
Source of the keplerian elements: AFSPC